Location: Azul
(36.7830°S, 59.8500°W)
Time: 09:27:53
(UTC-03:00)

ISS - Pass Details

Date: 05 December 2019
Orbit: 411 x 421 km, 51.6° (Epoch: 11 December)

Event Time Altitude Azimuth Distance (km) Brightness Sun altitude
Exits shadow 01:54:44 14° 125° (SE) 1,317 -0.7 -28.9°
Drops below altitude 10° 01:55:11 10° 126° (SE) 1,498 -0.3 -28.9°
Sets 01:57:23 0° 128° (SE) 2,394 0.9 -28.8°
